Location: *
(43.7000°S, 168.7000°W)
Time: 04:36:09
(UTC+00:00)

In-Cosmos 22 - Pass Details

Date: 07 July 2020
Orbit: 785 x 876 km, 81.2° (Epoch: 10 August)

Event Time Altitude Azimuth Distance (km) Brightness Sun altitude
Rises 17:35:52 0° 355° (N) 3,412 7.5 -12.6°
Reaches altitude 10° 17:38:18 10° 355° (N) 2,472 6.8 -12.2°
Maximum altitude 17:43:54 82° 82° (E) 855 4.3 -11.2°
Drops below altitude 10° 17:49:27 10° 168° (SSE) 2,442 6.5 -10.3°
Sets 17:51:50 0° 168° (SSE) 3,369 7.2 -9.9°
